Temp
84 87 86 79 76 78 67 68 76 72 73 77 79 76 70 71 70 66 82 83 84 84 84 85 81 82 82 82 82 83 83 83 83 83 83 84 84 84 84 84 83 84 84 84 84 84 83 83 83
88 86 85 84 74 67 67 73 72 75 76 80 79 77 73 67 75 76 78 83 85 86 86 86 81 82 82 83 82 83 83 83 83 83 83 84 84 84 84 84 84 84 84 84 84 84 83 83 83
87 88 83 80 75 67 67 73 75 77 80 79 75 79 75 70 76 79 84 84 86 84 85 85 81 82 83 82 83 83 83 83 83 83 83 84 84 84 84 84 84 83 83 83 83 83 83 83 83
88 87 85 76 70 72 73 76 78 77 79 79 79 72 78 82 80 83 85 85 85 85 86 84 82 83 83 82 83 83 83 83 83 83 84 84 84 84 84 84 84 83 83 83 83 83 83 83 83
89 84 78 73 71 75 79 80 80 76 76 77 78 71 72 79 84 85 84 86 85 86 86 86 82 83 83 83 83 84 84 84 83 84 84 84 84 84 84 84 84 84 84 84 84 84 84 83 83
84 83 76 71 70 75 79 81 80 76 77 76 76 74 74 81 82 84 86 86 88 87 88 87 83 83 83 84 84 84 84 84 84 84 84 84 84 84 84 84 84 84 84 84 84 84 83 83 83
82 80 72 73 71 73 76 84 78 76 75 75 80 72 73 79 84 85 86 86 88 88 87 86 87 85 84 84 84 84 84 84 84 84 84 84 84 84 83 84 84 84 84 85 84 84 83 83 83
87 84 75 75 74 74 80 81 82 80 75 83 84 71 70 79 84 85 85 86 86 87 86 85 85 87 86 87 84 84 84 83 83 84 83 83 84 84 84 83 83 83 84 84 84 84 83 83 83
87 81 75 74 75 78 82 79 82 84 79 80 82 80 84 83 84 83 82 82 83 83 84 86 86 86 85 86 87 84 84 84 83 84 84 85 90 88 86 83 82 84 84 84 84 84 84 82 82
85 80 79 84 85 82 82 81 80 77 78 77 77 81 82 82 81 80 80 80 81 82 83 84 86 86 86 88 85 86 87 88 87 87 86 86 86 86 86 84 82 83 84 83 84 83 83 85 91
84 81 84 84 86 87 83 81 83 77 75 79 75 77 79 80 80 80 81 81 81 83 85 85 84 85 85 84 86 86 86 86 87 85 85 85 86 86 87 88 89 88 85 91 89 87 90 86 86
82 86 87 86 86 85 82 85 80 80 81 86 82 81 80 79 80 81 81 81 81 82 83 85 84 83 84 85 85 86 86 86 86 87 84 84 85 84 84 87 86 83 86 86 87 89 85 86 85
83 86 87 88 86 86 85 81 81 79 84 86 83 81 79 80 81 83 84 84 83 81 83 84 84 83 83 82 85 85 85 86 86 86 86 86 85 81 81 83 84 83 84 86 82 83 84 84 85
86 84 84 86 84 84 82 80 82 81 82 81 80 79 81 81 81 82 82 82 82 83 84 85 84 84 84 83 82 84 85 86 86 86 86 84 84 81 82 83 81 82 85 87 83 82 84 84 84
85 79 81 82 83 80 84 74 77 82 81 78 79 79 80 81 83 81 83 82 83 84 85 84 84 85 83 83 83 83 86 82 86 87 83 83 83 83 83 81 81 84 85 82 84 83 84 84 85
81 81 75 79 82 80 84 75 80 82 80 77 78 79 79 81 83 84 85 84 85 85 83 84 87 86 83 83 84 85 85 85 83 84 82 85 82 84 84 81 82 82 83 84 84 84 84 84 84
78 75 75 74 83 79 80 77 81 82 81 78 79 80 80 80 82 84 86 85 86 84 84 83 84 85 84 83 84 85 82 82 81 85 85 84 83 83 81 83 81 81 83 81 84 84 82 82 83
73 73 75 75 78 80 77 76 77 80 81 79 79 80 80 81 82 84 86 87 87 86 84 84 85 84 83 84 82 84 83 84 85 81 84 85 83 84 83 81 81 81 81 83 83 80 82 81 81
82 78 77 77 80 78 77 77 76 79 79 79 80 79 81 82 86 87 86 87 86 85 84 83 82 82 83 83 82 82 83 83 83 82 84 84 83 83 82 82 82 82 82 82 81 82 79 82 81
79 77 77 78 80 80 76 75 78 79 78 80 80 79 80 82 84 84 85 86 85 84 83 82 82 82 82 84 83 84 83 85 86 85 83 84 84 83 83 82 82 81 83 79 80 79 80 81 80
77 77 76 77 77 77 76 74 75 78 80 81 82 83 83 82 83 83 83 84 85 83 83 82 82 82 82 83 83 81 82 82 83 83 83 84 84 83 82 82 82 80 81 82 79 79 76 78 79
75 80 80 77 75 69 78 67 73 78 75 77 80 82 83 83 85 86 85 84 85 84 85 84 83 82 82 81 81 80 82 81 84 83 84 84 83 83 82 81 81 79 82 79 80 80 79 77 77
79 81 80 79 77 73 70 69 78 74 73 76 80 82 84 87 86 86 86 86 86 86 86 84 83 82 82 81 82 81 81 84 84 82 80 81 80 81 82 81 80 79 81 79 78 77 76 79 78
81 77 74 75 76 63 73 70 74 72 75 80 83 84 85 87 88 88 89 88 86 88 86 85 82 80 81 81 81 80 80 81 80 80 80 81 81 81 79 80 80 80 79 78 79 77 76 77 77
80 77 65 62 61 62 75 68 74 83 84 86 87 84 86 88 88 87 86 86 85 84 84 84 81 79 80 80 81 81 80 80 79 79 81 80 80 80 79 78 78 79 78 78 78 77 77 76 77
76 78 68 56 59 65 66 63 73 85 90 87 89 90 88 87 88 86 86 85 85 84 83 83 81 80 80 81 80 81 81 83 82 80 82 82 82 82 80 79 79 78 78 78 77 79 79 77 77
74 69 83 71 65 66 70 71 78 83 84 86 86 87 87 87 88 88 88 87 86 84 83 83 81 80 81 81 81 80 80 80 81 79 77 80 79 82 79 79 78 78 77 77 77 79 77 77 76
78 82 69 69 59 56 65 66 74 79 83 87 85 86 88 88 88 89 89 87 87 87 86 84 83 81 82 82 82 82 81 76 79 79 76 78 79 79 78 78 78 77 77 77 76 77 77 75 78
74 72 71 76 71 64 61 68 81 83 86 88 89 88 89 88 88 89 88 88 87 87 87 85 84 83 83 82 82 81 79 78 76 78 77 72 77 76 77 77 77 78 77 77 75 76 77 75 75
82 76 76 68 62 67 70 72 85 84 89 90 90 90 90 88 88 88 88 88 87 86 87 86 87 85 85 84 82 81 78 74 77 71 76 78 74 74 76 76 75 76 76 77 76 76 77 75 74
MSLP
1009.47 1009.63 1009.83 1009.72 1009.31 1008.51 1009.07 1009.70 1009.91 1010.26 1010.57 1011.09 1011.31 1011.55 1012.56 1013.09 1013.09 1013.95 1014.83 1015.36 1015.59 1015.77 1016.00 1015.98 1016.29 1016.33 1016.51 1016.83 1017.08 1017.22 1017.37 1017.57 1017.94 1018.15 1018.52 1018.58 1018.73 1018.93 1019.02 1019.01 1019.02 1019.23 1019.31 1019.42 1019.31 1019.36 1019.40 1019.29 1019.33
1009.11 1009.42 1009.11 1008.36 1008.16 1008.05 1009.02 1009.56 1009.73 1010.21 1010.92 1011.29 1011.60 1012.04 1012.46 1013.44 1013.80 1014.38 1014.95 1015.39 1015.51 1015.56 1015.92 1016.12 1016.55 1016.57 1016.77 1017.04 1017.29 1017.44 1017.70 1018.05 1018.33 1018.52 1018.74 1018.86 1019.05 1019.13 1019.23 1019.14 1019.29 1019.51 1019.62 1019.53 1019.58 1019.63 1019.56 1019.44 1019.51
1008.93 1008.70 1008.29 1007.93 1008.13 1008.19 1008.87 1009.49 1009.88 1010.41 1010.91 1011.04 1011.71 1012.32 1012.92 1013.75 1014.30 1014.50 1014.85 1015.34 1015.55 1015.84 1016.15 1016.38 1016.77 1016.80 1017.02 1017.35 1017.57 1017.82 1018.07 1018.32 1018.63 1018.80 1018.85 1019.11 1019.23 1019.24 1019.23 1019.39 1019.46 1019.67 1019.74 1019.79 1019.82 1019.80 1019.63 1019.56 1019.51
1008.48 1008.43 1008.35 1007.98 1008.03 1008.68 1009.01 1009.61 1010.01 1010.42 1010.90 1011.31 1011.86 1012.51 1013.48 1014.02 1014.31 1014.60 1015.18 1015.36 1015.74 1016.04 1016.38 1016.73 1016.92 1017.04 1017.30 1017.50 1017.82 1018.10 1018.31 1018.52 1018.72 1018.88 1019.05 1019.24 1019.31 1019.25 1019.44 1019.59 1019.72 1019.84 1019.88 1019.94 1020.02 1019.88 1019.72 1019.70 1019.63
1008.28 1008.10 1007.51 1007.73 1008.11 1008.63 1008.99 1009.70 1010.18 1010.28 1010.88 1011.40 1011.89 1012.88 1013.65 1014.45 1014.58 1015.01 1015.43 1015.64 1015.81 1016.07 1016.49 1016.84 1017.11 1017.24 1017.39 1017.64 1017.90 1018.22 1018.41 1018.62 1018.79 1019.00 1019.15 1019.32 1019.33 1019.48 1019.68 1019.84 1019.93 1019.99 1020.01 1019.99 1019.96 1019.84 1019.81 1019.77 1019.75
1007.66 1007.78 1007.20 1007.43 1008.12 1008.73 1009.25 1009.71 1010.17 1010.66 1011.17 1011.63 1012.05 1012.70 1013.99 1014.69 1014.88 1015.21 1015.59 1015.74 1015.79 1016.19 1016.46 1016.88 1017.33 1017.44 1017.60 1017.79 1018.11 1018.34 1018.54 1018.72 1018.92 1019.04 1019.30 1019.40 1019.51 1019.70 1019.85 1019.91 1019.98 1020.02 1019.96 1019.95 1019.88 1019.81 1019.78 1019.72 1019.74
1007.16 1007.09 1007.28 1007.43 1007.99 1008.51 1009.15 1009.75 1010.04 1010.72 1011.18 1011.63 1012.09 1012.65 1014.23 1014.55 1014.89 1015.38 1015.72 1015.97 1015.94 1016.23 1016.62 1017.00 1017.24 1017.48 1017.75 1018.02 1018.39 1018.56 1018.69 1018.84 1018.95 1019.07 1019.22 1019.40 1019.58 1019.73 1019.84 1019.89 1019.93 1019.87 1019.92 1019.85 1019.82 1019.74 1019.68 1019.68 1019.64
1006.94 1006.79 1006.81 1007.10 1007.39 1008.05 1008.95 1009.61 1010.25 1010.54 1011.23 1011.89 1012.07 1012.63 1013.50 1014.16 1014.92 1015.51 1015.90 1016.17 1016.33 1016.55 1016.85 1017.09 1017.31 1017.49 1017.81 1018.14 1018.51 1018.60 1018.84 1018.96 1019.15 1019.22 1019.38 1019.55 1019.69 1019.81 1019.90 1019.92 1019.91 1019.97 1019.98 1019.88 1019.76 1019.74 1019.67 1019.69 1019.65
1006.98 1006.40 1006.20 1006.50 1006.75 1007.36 1008.59 1009.25 1010.25 1010.62 1011.12 1011.66 1012.04 1012.36 1012.75 1014.10 1014.83 1015.34 1015.87 1016.28 1016.57 1016.85 1017.06 1017.10 1017.33 1017.68 1017.99 1018.18 1018.39 1018.71 1018.89 1019.09 1019.17 1019.25 1019.47 1019.58 1019.56 1019.65 1019.72 1019.88 1019.88 1019.82 1019.82 1019.80 1019.69 1019.70 1019.77 1019.69 1019.69
1006.08 1005.75 1005.51 1005.72 1005.97 1006.53 1007.89 1008.85 1009.75 1010.53 1010.93 1011.45 1012.13 1012.71 1013.37 1014.26 1014.78 1015.02 1015.50 1015.91 1016.28 1016.57 1016.95 1017.17 1017.34 1017.60 1018.00 1018.08 1018.42 1018.55 1018.68 1018.79 1018.99 1019.13 1019.33 1019.46 1019.59 1019.64 1019.72 1019.78 1019.81 1019.72 1019.70 1019.66 1019.61 1019.64 1019.70 1019.53 1019.28
1005.56 1005.09 1005.17 1005.38 1005.96 1006.46 1007.34 1008.55 1009.40 1010.09 1010.58 1010.97 1011.74 1012.64 1013.36 1014.02 1014.56 1014.90 1015.28 1015.67 1016.03 1016.44 1016.82 1017.12 1017.36 1017.71 1017.93 1018.16 1018.42 1018.58 1018.72 1018.86 1018.99 1019.23 1019.36 1019.46 1019.56 1019.62 1019.54 1019.40 1019.44 1019.44 1019.49 1019.29 1019.22 1019.35 1019.20 1019.33 1019.37
1005.16 1004.99 1005.00 1005.30 1005.96 1006.29 1007.05 1008.03 1009.01 1009.62 1009.86 1010.51 1011.56 1012.31 1013.35 1013.88 1014.27 1014.64 1015.14 1015.63 1016.07 1016.44 1016.77 1016.98 1017.18 1017.62 1017.92 1018.08 1018.25 1018.40 1018.49 1018.71 1018.78 1018.95 1019.28 1019.38 1019.38 1019.45 1019.42 1019.29 1019.43 1019.46 1019.39 1019.31 1019.37 1019.29 1019.37 1019.34 1019.45
1004.81 1004.61 1004.93 1005.08 1005.77 1006.26 1007.10 1007.75 1008.71 1009.45 1010.02 1010.52 1011.46 1012.56 1013.10 1013.73 1014.13 1014.55 1014.99 1015.49 1015.89 1016.12 1016.41 1016.72 1016.97 1017.40 1017.72 1017.98 1018.05 1018.17 1018.32 1018.38 1018.53 1018.76 1018.91 1019.03 1019.05 1019.25 1019.26 1019.36 1019.17 1019.31 1019.22 1019.17 1019.36 1019.35 1019.32 1019.24 1019.26
1004.49 1004.69 1004.98 1005.28 1005.88 1006.65 1007.08 1008.15 1008.78 1009.49 1010.28 1010.84 1011.49 1012.30 1012.95 1013.49 1013.97 1014.48 1014.91 1015.27 1015.61 1015.84 1016.02 1016.41 1016.79 1017.10 1017.46 1017.68 1017.88 1017.93 1018.08 1018.16 1018.27 1018.41 1018.44 1018.72 1018.71 1018.90 1019.07 1018.98 1019.03 1019.02 1019.09 1019.06 1019.28 1019.37 1019.30 1019.29 1019.27
1004.49 1004.76 1005.32 1005.74 1006.19 1006.67 1007.27 1008.29 1008.31 1009.26 1010.25 1010.88 1011.44 1012.24 1012.78 1013.17 1013.71 1013.98 1014.40 1014.83 1015.19 1015.47 1015.83 1016.08 1016.43 1016.71 1017.10 1017.28 1017.53 1017.73 1017.75 1017.99 1017.96 1017.89 1018.20 1018.28 1018.31 1018.44 1018.57 1018.82 1018.81 1018.86 1018.94 1019.16 1019.12 1019.18 1019.22 1019.07 1019.02
1004.28 1004.69 1005.02 1005.86 1006.19 1006.80 1006.67 1006.76 1008.04 1009.17 1009.77 1010.51 1011.25 1011.89 1012.40 1012.77 1013.12 1013.53 1013.96 1014.36 1014.75 1015.19 1015.52 1015.90 1016.10 1016.39 1016.80 1016.92 1017.17 1017.32 1017.54 1017.60 1017.65 1017.74 1017.89 1017.89 1017.95 1018.11 1018.23 1018.52 1018.48 1018.71 1018.85 1018.87 1018.83 1019.05 1019.00 1019.04 1018.99
1004.20 1003.85 1004.63 1005.58 1005.84 1006.27 1006.71 1006.60 1007.63 1008.75 1009.40 1010.15 1010.79 1011.17 1011.77 1012.36 1012.69 1012.94 1013.38 1013.80 1014.15 1014.65 1015.10 1015.46 1015.84 1016.06 1016.42 1016.65 1016.86 1017.05 1017.15 1017.30 1017.41 1017.48 1017.43 1017.47 1017.76 1017.87 1017.96 1018.04 1018.30 1018.43 1018.52 1018.76 1018.94 1019.03 1019.13 1018.94 1018.80
1003.05 1003.58 1004.23 1004.34 1005.46 1006.03 1006.51 1006.97 1007.70 1008.60 1009.03 1009.52 1010.24 1010.76 1011.17 1011.53 1011.66 1012.31 1012.83 1013.25 1013.69 1014.19 1014.71 1015.12 1015.51 1015.81 1016.15 1016.42 1016.70 1016.80 1017.03 1016.97 1017.04 1017.19 1017.16 1017.28 1017.57 1017.74 1017.76 1017.88 1018.04 1018.29 1018.49 1018.65 1018.95 1019.17 1019.26 1019.21 1019.04
1002.44 1002.97 1003.27 1004.24 1004.95 1005.71 1006.24 1006.78 1007.58 1008.32 1008.91 1009.08 1009.59 1010.24 1010.51 1010.68 1011.07 1011.64 1012.20 1012.80 1013.34 1013.79 1014.26 1014.66 1015.03 1015.32 1015.81 1016.11 1016.37 1016.51 1016.52 1016.68 1016.84 1016.92 1016.91 1017.19 1017.32 1017.47 1017.55 1017.71 1017.92 1018.23 1018.40 1018.75 1019.09 1019.16 1019.24 1019.04 1019.28
1002.50 1002.61 1003.09 1004.15 1004.84 1005.30 1006.13 1006.34 1007.12 1007.57 1007.97 1008.38 1008.76 1009.33 1009.69 1010.04 1010.60 1011.12 1011.59 1012.11 1012.63 1013.13 1013.55 1014.08 1014.48 1014.87 1015.36 1015.64 1015.97 1016.15 1016.32 1016.37 1016.31 1016.52 1016.76 1016.98 1017.17 1017.33 1017.51 1017.73 1017.99 1018.17 1018.38 1018.73 1018.96 1019.22 1019.17 1019.20 1019.37
1002.31 1002.15 1002.82 1003.19 1004.65 1005.25 1005.65 1005.69 1006.17 1006.72 1007.43 1008.01 1008.20 1008.40 1008.78 1009.06 1009.53 1010.18 1010.83 1011.28 1011.82 1012.42 1012.95 1013.42 1013.80 1014.23 1014.84 1015.35 1015.82 1016.15 1016.32 1016.40 1016.39 1016.51 1016.67 1016.71 1017.01 1017.25 1017.50 1017.72 1017.88 1018.21 1018.37 1018.44 1018.82 1019.08 1019.25 1019.01 1019.31
1001.46 1001.89 1002.40 1003.29 1003.86 1004.17 1005.15 1004.21 1004.74 1005.35 1006.11 1006.75 1007.08 1007.41 1007.57 1008.08 1008.72 1009.15 1009.81 1010.38 1010.90 1011.51 1012.14 1012.69 1013.25 1013.72 1014.28 1014.89 1015.22 1015.50 1015.61 1015.71 1015.90 1016.21 1016.40 1016.67 1016.94 1017.16 1017.45 1017.77 1018.10 1018.31 1018.27 1018.54 1018.68 1018.88 1019.05 1019.14 1018.89
1001.33 1001.76 1002.24 1002.73 1003.23 1004.22 1004.84 1004.84 1003.24 1004.57 1004.73 1004.49 1005.09 1005.65 1006.21 1006.63 1007.29 1007.80 1008.51 1009.30 1009.98 1010.66 1011.33 1011.98 1012.67 1013.20 1013.67 1014.23 1014.61 1015.05 1015.24 1015.32 1015.78 1016.16 1016.49 1016.74 1017.02 1017.26 1017.48 1017.77 1018.01 1018.22 1018.24 1018.57 1018.73 1018.93 1019.07 1019.08 1018.97
1001.82 1002.18 1003.07 1003.48 1003.53 1003.73 1003.44 1003.78 1002.29 1002.97 1002.36 1002.12 1002.95 1004.20 1004.73 1005.35 1005.98 1006.70 1007.59 1008.52 1009.18 1009.97 1010.56 1011.11 1011.80 1012.31 1013.02 1013.63 1014.08 1014.41 1014.59 1014.98 1015.50 1015.84 1016.15 1016.48 1016.93 1017.21 1017.41 1017.59 1017.84 1018.07 1018.25 1018.59 1018.69 1018.95 1019.02 1019.00 1019.10
1001.27 1001.48 1002.47 1003.03 1003.28 1002.55 1002.83 1003.08 1001.39 1000.76 1000.71 1000.63 1001.02 1002.08 1003.14 1004.15 1004.99 1005.58 1006.46 1007.29 1008.05 1008.76 1009.53 1010.20 1010.91 1011.50 1012.29 1012.86 1013.24 1013.66 1014.05 1014.46 1014.89 1015.21 1015.52 1016.01 1016.45 1016.77 1017.02 1017.34 1017.69 1017.92 1018.32 1018.50 1018.58 1018.82 1018.99 1019.04 1018.96
1000.45 1000.54 1000.51 1001.18 1001.82 1002.27 1002.94 1001.67 1000.08 999.65 999.40 1000.17 1000.51 1001.08 1002.36 1003.09 1003.85 1004.54 1005.20 1006.05 1006.94 1007.77 1008.58 1009.30 1009.92 1010.77 1011.39 1011.92 1012.39 1013.03 1013.54 1013.85 1014.22 1014.64 1014.83 1015.29 1015.69 1016.06 1016.46 1017.06 1017.41 1017.81 1018.20 1018.33 1018.55 1018.70 1018.71 1018.83 1018.86
1000.11 1000.05 1000.23 1000.76 1002.08 1001.44 1000.95 1000.91 1000.07 999.14 998.99 999.13 999.46 1000.32 1000.83 1001.53 1002.37 1003.02 1004.21 1005.07 1005.71 1006.61 1007.25 1007.89 1008.81 1009.69 1010.41 1010.99 1011.80 1012.40 1013.04 1013.43 1013.76 1014.36 1014.74 1014.96 1015.44 1015.75 1016.22 1016.47 1017.06 1017.47 1017.82 1018.11 1018.12 1018.10 1018.29 1018.50 1018.63
999.17 999.61 1000.56 1000.45 1000.04 1000.28 1000.22 999.89 998.67 998.21 997.88 997.92 998.61 998.98 999.27 1000.04 1001.22 1002.02 1002.73 1003.74 1004.58 1005.22 1005.98 1007.02 1007.81 1008.44 1009.22 1010.35 1010.89 1011.41 1012.25 1013.01 1013.33 1014.08 1014.64 1014.67 1015.22 1015.62 1015.91 1016.26 1016.84 1017.31 1017.57 1017.71 1018.15 1018.15 1018.28 1018.35 1018.24
999.28 999.20 999.39 999.26 999.36 998.77 998.93 998.02 998.16 997.49 997.13 997.01 997.28 997.74 998.12 999.11 999.92 1000.61 1001.52 1002.67 1003.47 1004.14 1005.20 1005.97 1006.86 1007.68 1008.51 1009.06 1009.71 1010.51 1011.43 1012.36 1012.97 1013.30 1013.96 1015.31 1014.31 1015.19 1015.56 1016.06 1016.59 1016.98 1017.29 1017.56 1017.82 1018.12 1018.12 1018.13 1018.03
997.81 997.91 998.19 997.86 998.88 998.86 998.08 997.07 997.06 996.93 996.61 996.64 996.61 997.07 997.79 998.49 999.10 999.93 1000.92 1001.99 1002.87 1003.53 1004.33 1004.92 1005.59 1006.37 1006.89 1007.62 1008.86 1009.62 1010.79 1011.41 1012.09 1012.77 1013.02 1014.06 1015.76 1014.94 1015.67 1016.07 1016.51 1016.75 1017.07 1017.41 1017.63 1017.77 1017.85 1017.89 1017.53
Wind_Speed
15 12 6 4 1 3 5 4 4 8 5 3 5 6 8 7 4 8 7 8 11 11 10 12 11 12 11 11 13 14 14 15 13 13 11 10 10 8 8 9 10 9 9 8 9 8 7 8 9
9 7 4 1 2 6 4 2 9 4 8 12 10 6 5 6 5 11 10 10 12 11 10 9 9 12 13 13 14 14 14 14 12 12 10 10 9 8 7 9 8 8 7 7 7 6 7 8 8
8 2 2 2 2 6 4 5 11 13 7 4 5 8 4 5 9 11 10 12 11 10 9 9 11 12 14 14 14 13 13 14 12 11 10 10 9 8 8 7 7 6 6 6 5 6 7 7 7
3 2 2 2 7 5 4 11 14 12 7 6 11 10 7 8 7 8 14 13 12 11 11 11 13 14 14 14 14 13 13 12 11 11 10 9 8 8 7 6 4 4 4 4 4 6 7 7 7
1 2 2 4 5 5 8 12 9 5 6 8 4 7 9 4 11 17 15 13 13 13 11 12 12 13 13 14 15 13 12 12 11 10 9 7 7 6 5 3 3 3 3 3 5 6 6 7 6
2 1 2 4 4 5 7 13 6 3 7 10 12 11 7 10 15 15 14 13 13 12 11 12 11 12 13 13 13 13 12 11 10 9 8 6 5 4 3 2 1 2 3 4 4 6 6 5 6
1 1 3 4 5 5 6 10 5 7 8 6 12 9 6 12 14 14 13 12 12 12 11 9 10 12 13 12 12 12 11 11 10 9 8 7 6 4 2 2 3 4 4 5 6 5 5 4 3
1 1 6 3 6 5 9 8 7 8 5 12 11 7 10 15 16 14 13 12 11 10 9 10 9 10 10 11 12 11 10 9 8 7 7 6 5 3 3 4 2 6 7 6 6 6 4 4 2
4 2 5 7 9 6 12 8 6 5 12 5 6 7 11 19 17 15 13 12 11 9 9 9 10 10 9 9 9 9 8 7 6 5 5 5 3 3 3 2 7 7 7 6 6 4 3 4 3
5 3 6 6 8 11 15 11 11 5 12 5 5 10 20 20 18 17 16 14 14 13 12 10 10 10 9 7 7 7 6 5 5 5 5 4 4 3 4 5 6 7 4 4 4 4 2 1 3
4 5 4 3 8 13 17 12 9 7 13 10 12 18 22 19 18 17 16 15 14 13 10 11 10 10 9 6 5 4 4 4 4 6 5 4 3 3 3 3 3 2 1 2 1 1 2 4 3
7 6 5 6 10 16 17 15 10 12 5 10 14 22 21 19 18 17 16 15 13 12 12 11 11 9 9 6 6 6 5 5 5 5 6 5 4 4 4 3 3 3 2 1 1 2 3 3 4
6 6 7 7 14 13 16 15 10 12 3 11 19 22 22 19 18 15 15 14 13 14 14 12 12 11 10 9 6 7 6 7 7 6 7 6 6 5 4 4 4 3 2 3 2 2 3 4 5
2 1 3 9 13 12 16 10 9 9 10 15 21 23 20 19 18 15 14 14 14 14 15 14 14 12 11 10 9 7 7 7 7 7 7 9 7 5 5 4 4 2 3 2 2 2 3 4 4
8 6 8 10 13 8 15 8 14 11 14 16 19 20 19 19 17 17 17 16 16 15 14 15 14 13 12 12 10 8 7 6 7 7 9 9 9 7 7 4 4 3 3 3 3 3 2 3 3
4 5 7 8 13 9 15 13 12 16 17 18 20 18 18 18 19 17 16 16 15 14 15 14 12 13 13 11 9 8 7 7 6 6 6 9 9 8 7 5 4 2 2 2 2 2 2 2 3
4 8 9 10 11 10 13 5 12 18 17 18 19 19 17 17 18 18 17 16 16 16 14 14 13 13 13 12 9 9 8 5 4 5 5 5 6 4 4 4 3 3 3 2 1 2 3 3 4
12 7 9 9 13 11 13 5 9 15 18 18 18 18 18 19 21 18 18 17 16 15 15 14 12 13 12 8 7 6 6 6 5 5 5 5 4 5 5 3 4 4 2 2 2 2 2 4 4
14 14 16 7 11 11 12 12 6 14 16 17 17 18 19 20 19 18 18 17 16 15 15 15 14 14 10 8 7 7 7 6 6 5 8 7 5 5 5 3 4 4 3 2 2 2 3 2 2
14 17 14 8 11 12 10 13 8 15 20 19 19 19 19 19 18 19 18 17 18 17 17 16 16 14 12 9 7 6 5 6 5 4 5 6 6 6 5 5 5 4 3 3 2 2 2 2 1
13 18 15 13 10 4 8 14 12 13 17 18 19 18 19 20 20 19 20 19 18 18 18 16 16 14 13 12 7 5 3 2 3 5 4 6 6 6 6 6 4 4 4 3 3 2 2 2 1
17 13 15 14 13 13 12 12 12 16 18 21 21 21 21 21 19 19 20 21 20 19 17 17 16 14 13 14 11 11 9 8 6 5 5 5 7 7 6 5 5 4 3 3 2 2 1 2 1
9 11 16 17 18 7 10 8 10 10 17 23 25 25 24 23 22 22 22 21 21 19 17 16 16 14 14 14 13 11 12 8 5 4 5 6 6 6 6 6 6 5 4 3 3 3 3 2 2
10 11 6 4 9 9 16 14 10 10 16 24 23 25 25 24 23 22 20 19 18 17 17 16 16 15 15 15 16 15 13 11 8 6 6 6 6 6 7 6 5 5 4 5 4 4 5 4 3
12 13 7 9 8 9 9 12 15 11 19 22 20 25 27 24 22 22 22 21 19 20 19 17 17 16 16 17 16 16 16 14 13 10 8 8 8 7 8 8 7 6 6 5 4 5 4 5 5
18 21 10 16 12 11 5 12 9 20 21 14 14 13 20 24 22 23 22 21 20 20 19 18 17 16 16 17 16 14 15 11 10 11 9 9 9 9 8 8 8 8 6 6 6 5 5 5 5
11 14 15 9 2 8 7 6 11 14 13 11 17 15 20 23 25 27 24 22 20 19 21 21 18 16 16 17 14 15 14 14 12 11 10 9 9 7 8 9 10 9 8 8 7 5 5 5 6
13 14 11 8 18 17 8 5 6 6 11 15 12 19 22 22 24 24 23 22 20 21 20 19 18 19 18 16 16 15 16 11 12 10 11 12 10 9 10 11 10 10 9 7 6 6 6 6 6
9 9 3 7 8 15 15 13 8 13 13 12 15 19 19 21 23 23 22 21 21 20 18 19 19 18 17 17 16 15 13 15 12 10 11 7 12 12 11 11 10 9 8 8 7 8 8 8 8
20 19 18 12 12 5 10 13 6 14 14 11 14 11 13 18 21 20 21 21 20 19 19 21 20 20 20 18 16 17 16 13 13 12 12 13 9 10 9 9 9 8 8 8 8 9 8 10 9
Wind_Direction
148 158 164 207 224 81 82 99 112 132 124 64 87 102 93 44 33 116 127 160 156 149 142 135 138 134 135 137 137 132 128 134 135 131 126 119 118 108 102 100 84 85 85 81 71 62 51 42 36
150 174 211 255 63 106 80 104 136 113 113 108 91 102 59 77 76 120 139 161 159 153 153 147 145 141 139 144 140 133 135 137 132 128 125 118 120 116 104 82 80 77 74 65 58 45 39 33 26
160 248 289 51 39 60 102 142 122 116 136 117 108 55 61 88 118 133 131 145 146 147 153 149 151 139 139 143 140 139 136 133 133 128 124 128 129 116 95 89 82 80 70 58 46 38 30 20 9
168 159 120 79 77 76 100 146 135 131 98 72 114 86 88 114 141 140 141 144 147 147 154 146 145 140 142 142 145 143 134 130 133 135 138 137 128 106 100 99 95 77 64 51 33 27 10 2 357
124 164 121 92 65 68 122 148 149 129 106 114 131 110 106 76 119 134 142 149 148 147 150 148 150 148 144 142 145 144 141 140 139 139 138 138 126 115 114 108 83 54 27 24 16 6 358 344 344
130 310 96 73 79 97 120 151 135 101 126 122 113 116 118 129 141 144 148 149 147 147 151 148 152 147 145 147 145 147 147 147 147 146 144 143 137 136 126 98 2 357 340 347 356 342 348 343 333
233 161 89 120 108 136 135 158 145 126 139 127 133 118 124 161 148 149 149 149 151 147 148 153 157 157 151 146 150 153 154 157 157 162 160 165 164 170 182 257 299 307 318 317 331 338 338 325 326
136 261 137 162 167 123 144 145 143 145 102 128 150 160 166 168 154 147 148 150 155 153 159 161 160 153 160 158 158 154 158 159 167 172 171 178 179 199 235 284 294 314 313 316 312 332 348 344 344
167 189 183 178 171 141 151 158 148 123 144 183 170 155 145 152 152 149 152 158 162 168 170 167 163 166 168 170 166 167 165 172 175 188 180 201 228 234 264 340 322 295 306 316 319 334 355 45 53
212 227 196 191 177 158 164 170 149 155 164 163 121 125 140 154 160 160 167 170 177 175 176 178 178 174 176 183 176 181 190 191 200 209 214 222 230 247 280 272 318 311 311 312 355 4 37 259 17
172 248 191 192 171 158 157 168 161 154 189 188 169 155 155 162 169 173 176 179 181 181 182 185 180 182 185 181 182 191 192 198 207 218 224 222 236 244 260 266 276 299 307 324 330 341 2 3 357
230 222 206 146 166 161 167 156 177 181 185 177 166 161 162 170 176 179 180 180 183 190 194 191 194 190 196 193 195 198 200 206 218 217 223 224 234 238 251 257 261 260 309 306 300 349 340 339 338
222 250 216 180 168 174 156 169 173 200 214 162 154 164 170 179 182 187 189 188 188 194 196 198 197 198 200 204 203 212 218 219 224 229 225 225 236 244 232 244 235 230 229 244 266 307 325 313 315
150 3 143 170 159 157 163 162 168 174 144 152 161 170 174 183 188 188 191 193 197 198 198 197 201 201 202 208 211 219 222 227 224 230 231 225 235 245 249 248 257 252 270 273 286 307 303 314 309
137 104 101 135 153 149 144 154 212 159 158 159 166 175 180 189 188 194 194 199 200 203 203 204 202 201 206 211 214 222 230 229 235 232 229 225 232 236 243 243 265 249 235 241 256 271 262 279 292
125 153 170 167 174 156 185 208 191 169 165 170 174 180 187 192 196 199 200 205 202 205 205 207 206 203 208 213 216 219 229 230 242 249 258 233 245 237 239 238 249 233 227 243 257 262 278 276 283
190 201 202 172 197 161 200 212 185 176 181 180 183 185 191 195 205 205 205 207 204 205 204 207 205 208 209 213 219 228 238 232 231 231 234 234 217 224 231 238 238 204 221 210 216 222 287 303 301
184 199 205 179 179 190 198 189 162 187 190 190 192 193 196 200 206 205 212 212 210 209 210 210 206 211 210 211 213 225 234 240 239 241 247 241 243 231 234 230 194 199 174 160 193 255 271 303 316
196 206 195 175 164 180 220 247 203 192 207 201 201 202 203 210 208 210 210 214 214 214 212 211 208 211 204 200 206 220 223 233 234 229 239 238 226 214 209 179 163 177 192 189 207 260 284 284 335
196 214 202 156 160 191 200 236 232 204 214 211 205 206 210 213 210 213 217 213 211 214 214 211 213 211 208 207 209 219 216 231 243 239 227 234 219 211 189 184 180 180 183 190 212 215 273 295 350
201 204 188 187 161 101 184 236 229 223 218 221 223 219 216 217 210 211 213 213 211 213 211 212 213 213 211 210 200 185 179 185 211 220 219 214 211 197 193 179 185 179 206 199 187 196 229 303 153
210 212 202 172 172 221 201 259 220 219 214 220 225 219 219 216 217 214 210 212 213 213 209 209 212 211 207 199 199 206 216 224 223 215 208 199 193 191 189 185 182 187 198 185 177 186 194 222 271
217 175 191 190 204 197 206 245 255 198 219 221 222 222 221 216 213 215 212 212 212 212 208 208 207 210 206 200 204 203 218 224 203 195 207 208 184 193 193 188 183 186 204 193 205 185 196 205 261
143 117 86 130 187 222 212 216 234 196 218 228 218 220 219 216 214 217 214 210 211 210 209 206 203 207 203 204 204 208 212 210 205 198 204 203 194 189 198 195 199 202 207 205 197 197 202 217 228
198 170 173 194 198 225 226 216 243 230 228 229 222 213 214 213 214 213 208 206 207 204 204 203 203 208 202 205 207 207 212 206 204 201 200 195 193 197 200 200 202 205 212 208 201 200 203 206 216
193 199 206 207 209 217 164 218 236 232 248 244 245 228 214 213 211 213 207 203 203 203 202 202 202 207 203 204 204 205 208 206 207 204 200 198 200 198 190 198 205 204 205 202 202 213 225 214 220
177 216 224 230 56 228 189 239 271 253 246 234 228 212 212 211 210 210 207 207 204 199 202 201 200 203 204 206 200 204 204 209 207 207 200 198 195 190 186 190 193 196 195 203 202 220 221 227 230
204 171 192 218 222 233 204 232 228 228 243 236 217 214 221 210 208 210 207 203 201 204 202 201 199 202 204 204 206 203 205 196 201 198 206 197 190 195 183 188 195 198 203 206 216 226 225 228 229
181 191 207 239 235 231 235 230 212 232 243 240 234 226 222 208 206 204 203 200 202 206 203 201 201 202 202 202 204 203 194 195 205 210 181 231 180 186 191 190 199 202 204 212 216 238 248 239 246
230 217 211 220 195 229 255 223 187 226 245 247 245 239 230 211 207 203 201 200 203 205 204 205 204 203 206 203 201 204 196 192 198 187 203 176 222 175 188 195 203 204 214 222 225 241 248 245 243